Location: Anankanda
(14.7841°N, 3.0348°W)
Time: 10:23:53
(UTC+00:00)

Daily predictions for brighter satellites

Satellite Brightness Start Highest point End
(mag) Time Altitude Azimuth Time Altitude Azimuth Time Altitude Azimuth
SL-16 R/B 3.2 18:16:54 10° NNW 18:22:24 53° WSW 18:27:55 10° S
Cosmos 1844 3.9 18:21:01 10° S 18:26:23 51° ESE 18:31:48 10° NNE
Cosmos 1300 2.8 18:23:21 10° N 18:27:04 53° E 18:30:47 10° SSE
NOSS 2-1 (D) 4.1 18:23:36 10° S 18:27:40 34° ESE 18:30:58 10° NE
ERBS 2.2 18:25:30 10° NNW 18:28:42 61° ENE 18:31:57 10° SE
Cosmos 1689 Rocket 1.8 18:26:40 10° NNE 18:29:30 81° E 18:32:19 10° S
GPS 2-14 Rocket1 3.5 18:25:49 10° WNW 18:29:43 41° N 18:33:39 10° ENE
Okean-O 3.9 18:28:33 10° ESE 18:31:48 20° ENE 18:35:02 10° NNE
SAR-Lupe-1 4.2 18:30:07 10° N 18:33:40 81° WNW 18:37:13 10° SSW
Hubble Space Telescope 2.3 18:31:49 10° WNW 18:35:20 27° NNW 18:38:52 10° NE
Aureole 2 Rocket 2.2 18:33:12 10° SSW 18:35:57 70° WNW 18:38:50 10° N
Cosmos 1943 3.9 18:31:21 10° N 18:36:18 31° ENE 18:41:12 10° SE
USA 267 4.4 18:33:54 10° NNE 18:39:52 40° NW 18:45:51 10° WSW
Okean O Rocket 3.3 18:35:50 10° S 18:39:59 39° W 18:44:08 10° NNW
Cosmos 1726 Rocket 3.8 18:36:21 10° N 18:40:34 47° E 18:44:48 10° SSE
Cosmos 2279 Rocket 4.0 18:39:04 10° N 18:45:19 76° E 18:51:32 10° S
CZ-2C R/B 3.1 18:46:22 10° NNE 18:51:40 45° E 18:56:59 10° S
CZ-2D R/B 3.4 18:50:54 10° S 18:54:46 79° WSW 18:58:37 10° NNW
Cosmos 1844 Rocket 3.5 18:52:31 10° SSW 18:58:02 54° WNW 19:03:33 10° N
H-2A R/B (2) 4.4 18:55:34 10° W 18:58:09 13° SW 18:59:57 10° SSW
Cosmos 2278 Rocket 3.7 18:55:47 10° SE 18:59:06 16° ESE 18:59:30 16° E
Milstar 3 3.7 18:50:23 10° SW 19:00:07 46° SSE 19:05:02 18° E
Centaur AC-146 1.8 18:58:57 10° W 19:01:09 48° N 19:03:03 23° ENE
Cosmos 44 3.0 18:57:02 10° SSW 19:01:25 73° ESE 19:05:19 14° NNE
Cosmos 1937 Rocket 4.3 18:59:00 10° SSE 19:03:35 31° E 19:05:53 22° ENE
IRS-1C Rocket 4.0 18:59:13 10° SSE 19:04:28 89° ENE 19:09:44 10° NNW
Cosmos 1092 Rocket 4.0 18:59:46 10° S 19:05:58 64° E 19:12:05 10° NNE
Cosmos 1602 Rocket 3.5 19:05:20 10° S 19:09:34 59° E 19:13:18 13° NNE
YAOGAN 1 2.4 19:07:40 10° SSE 19:11:57 68° ENE 19:16:14 10° N
Meteor 2-1 Rocket 4.5 19:11:42 10° NNE 19:16:52 41° E 19:22:00 10° SSE
CZ-2C R/B 3.8 19:16:16 10° S 19:21:02 52° W 19:26:03 10° NNW
CSL-04 Rocket 3.8 19:16:36 10° SSE 19:21:37 45° ENE 19:26:42 10° N
GPS 2-12 Rocket1 3.2 19:17:32 10° W 19:21:52 56° N 19:23:04 41° NE
GPS 2-15 Rocket1 4.5 19:17:49 10° W 19:22:02 34° SSW 19:25:23 14° SE
NOSS 2-1 (E) 4.2 19:18:40 10° SW 19:22:39 43° WNW 19:24:43 20° N
CZ-4 R/B 1.9 19:18:57 10° S 19:23:05 63° WSW 19:27:12 10° NNW
Cosmos 1603 4.0 19:18:40 10° NNW 19:24:20 69° WSW 19:30:02 10° S
Iridium 4 Rocket 3.8 19:23:27 30° NE 19:25:27 42° E 19:30:09 10° SSE
GEOS 3 Rocket 3.5 19:24:40 25° NNE 19:27:48 89° ESE 19:32:56 10° SSW
ARIANE 5 R/B 3.7 19:02:19 10° WSW 19:28:51 42° SSW 19:32:26 20° SE
Cosmos 1703 3.9 19:25:54 10° SSW 19:29:43 53° W 19:33:02 13° N
BREEZE-M DEB (TANK) 1.9 19:27:14 10° SW 19:32:17 78° SSE 19:32:17 78° SSE
SWIFT 3.2 19:31:54 10° WNW 19:35:48 37° N 19:35:48 37° N
ATLAS 3B R/B 3.0 19:30:26 10° NNW 19:37:37 73° WSW 19:45:02 10° SSE
SJ 16-02 4.1 19:36:43 10° WSW 19:39:34 17° WNW 19:42:26 10° NNW
H-2A R/B 2.5 19:37:06 10° S 19:41:55 58° WSW 19:46:45 10° NNW
BREEZE-M DEB (TANK) 3.7 19:42:54 10° NNW 19:46:57 50° NE 19:59:10 10° SE
CCE 1 Rocket 4.0 19:46:42 10° WNW 19:51:40 58° NNW 19:51:40 58° NNW
FUSE 4.0 19:48:09 10° WNW 19:53:02 64° N 19:53:02 64° N
Palapa 6 Rocket 3.3 19:49:02 10° WNW 19:53:11 63° WNW 19:53:11 63° WNW
Sakura Rocket 3.3 19:49:00 10° WSW 19:54:36 73° S 19:54:36 73° S
Cosmos 1455 3.7 20:01:12 34° SW 20:01:12 34° SW 20:03:52 10° SSW
ARGOS 3.8 20:00:07 10° S 20:05:18 52° W 20:10:29 10° NNW
Cosmos 2098 Rocket 4.4 19:59:35 10° SSW 20:05:19 62° W 20:11:21 14° N
BREEZE-M DEB (TANK) 4.3 19:45:58 10° NW 20:09:49 60° NE 20:10:27 59° NE
Centaur D-1AR AC-48 3.1 20:03:45 10° W 20:10:56 39° NNW 20:10:56 39° NNW
ATLAS 2A CENTAUR R/B 3.8 19:30:00 10° WSW 20:15:08 81° SSE 20:17:58 58° E
Cosmos 2278 Rocket 3.7 20:37:35 10° SW 20:41:26 33° WSW 20:41:26 33° WSW
Milstar 3 Cent rocket 4.3 20:18:48 10° WNW 20:45:23 86° NNE 20:48:16 68° ESE
